Volver al catálogo

STARLINK-32148

ActivoComunicacionesVLEO
NORAD 60263·PAYLOAD·🇺🇸 United States

Lanzado Jul 27, 2024 desde Cape Canaveral Space Force Station

Loading…

Próximos Pases (próximas 24 horas)

TLE

ActualizadoSource: CelesTrak SupGP

Época: Sep 14, 2026, 21:01 UTC

1 60263C 24131J   26257.87618056  .00053912  00000+0  17337-2 0  2570
2 60263  53.1568 252.4397 0001358  93.3922 184.7976 15.31674201    17

Sigue STARLINK-32148 en tiempo real con AllMySat

Download on the App Store